Theta_e
347 349 349 347 347 348 348 347 348 347 348 346 349 346 345 346 348 351 351 361 361 360 357 357 356 355 354 355 353 353 353 348 349 351 352 351 351 351 351 349 350 351 351
353 348 346 347 346 347 349 347 348 347 346 346 344 345 344 344 346 347 348 353 361 361 358 357 356 355 354 353 352 352 352 349 350 350 349 348 350 352 351 351 350 350 350
351 351 347 349 345 348 345 346 349 349 345 343 345 341 345 345 343 345 345 348 355 360 359 358 358 356 354 353 351 351 350 349 347 348 350 349 350 352 352 351 350 350 350
351 349 347 347 350 349 349 339 346 343 344 342 340 341 342 344 344 344 345 346 346 349 356 358 358 357 352 352 351 351 352 354 355 353 352 353 353 353 353 352 350 349 348
355 349 346 346 348 347 348 348 341 346 340 341 340 340 342 344 347 347 347 348 345 347 347 356 357 357 354 354 356 356 357 357 357 356 355 354 354 354 353 353 351 349 348
355 351 350 349 352 346 343 346 338 341 336 341 341 341 341 340 340 342 344 350 348 348 347 348 351 353 358 359 359 359 355 358 358 357 357 356 356 355 354 353 352 350 347
347 342 349 351 348 344 340 347 345 338 339 343 338 336 336 339 338 341 342 345 346 350 350 347 349 349 351 359 359 360 357 357 357 357 356 356 355 353 353 352 351 350 347
352 352 350 351 348 346 348 344 341 338 335 336 334 335 326 329 338 338 339 341 336 347 348 348 349 347 345 348 352 360 359 358 356 355 356 355 353 352 351 350 350 350 346
357 355 351 352 350 349 347 347 345 341 336 338 341 334 325 323 331 333 329 336 336 339 340 341 342 348 345 347 351 355 358 355 357 354 354 354 352 352 351 351 350 349 345
357 357 355 352 352 347 347 348 351 341 337 335 344 346 336 335 329 321 331 336 337 340 340 341 341 342 342 347 353 353 356 353 355 355 354 354 353 350 349 349 350 348 344
357 358 356 355 352 348 349 349 349 349 345 341 340 334 336 334 336 329 328 333 337 337 340 339 342 343 342 342 347 349 353 352 351 353 355 356 354 349 347 347 347 345 342
356 357 361 355 353 353 352 351 351 348 349 348 347 342 330 329 330 333 332 333 330 334 341 342 339 343 344 343 349 351 354 350 348 348 350 353 354 353 348 346 345 344 342
351 353 356 354 355 354 353 353 352 352 351 348 350 347 346 343 337 336 335 334 329 335 333 338 342 338 345 345 345 352 353 348 345 343 344 346 349 351 352 351 350 349 346
351 353 356 353 354 355 355 353 351 352 352 351 348 349 349 346 346 337 336 332 327 331 335 331 339 341 340 344 349 353 345 344 342 340 340 341 343 345 347 348 348 348 348
352 353 358 354 357 355 355 354 350 350 352 352 351 349 350 348 345 342 337 337 331 325 327 336 339 344 342 344 348 348 343 344 341 339 337 337 339 340 342 343 343 343 344
350 354 358 357 358 355 353 354 349 352 350 350 349 350 348 348 344 348 340 338 337 332 328 335 336 339 347 346 348 347 345 347 344 340 337 336 336 337 338 339 340 340 340
353 357 357 356 356 357 356 354 350 353 350 350 350 351 351 350 346 348 352 348 342 338 332 334 340 344 345 346 349 348 348 347 346 340 339 337 335 336 336 337 337 337 337
350 355 358 357 356 353 354 355 350 351 353 350 351 351 352 354 350 349 351 347 348 349 342 337 341 341 341 344 345 347 352 357 351 349 341 338 336 334 333 333 332 333 333
349 351 355 355 353 354 353 354 355 352 351 351 351 352 352 352 349 350 348 347 346 346 346 343 340 345 348 349 349 348 351 353 356 350 341 338 337 335 333 330 329 327 325
354 354 355 354 355 353 353 353 354 355 353 354 355 355 355 354 353 353 354 352 351 349 349 347 346 345 345 349 347 347 344 346 347 355 352 346 343 343 336 331 329 329 324
351 352 353 355 356 356 356 352 353 355 355 353 353 354 355 354 352 352 356 353 353 350 350 348 347 346 344 342 343 346 345 347 348 348 350 350 354 359 358 349 342 338 329
354 352 351 354 356 358 345 342 350 351 355 355 354 354 356 351 350 343 343 344 353 353 350 349 347 345 344 345 346 346 345 343 342 350 351 354 355 356 359 358 346 335 332
347 351 355 355 354 357 339 338 342 351 349 354 354 354 354 357 349 353 343 337 338 337 341 349 345 346 346 348 347 345 346 348 348 353 351 351 355 354 358 358 343 337 335
350 350 352 355 356 357 338 334 338 349 350 350 353 355 354 353 351 350 352 352 350 348 346 344 344 349 350 352 350 352 351 351 354 357 349 345 354 352 354 356 343 340 330
353 351 354 355 355 357 335 333 332 340 347 349 351 352 352 353 344 337 348 349 350 353 348 335 337 337 337 336 342 350 350 347 346 344 350 350 350 350 350 350 351 332 324
351 354 353 356 350 357 335 330 332 349 343 345 347 348 337 348 336 332 347 348 344 345 345 347 347 339 333 340 333 342 348 342 341 345 352 348 347 348 345 345 345 331 329
Wind_Speed
2 5 4 1 2 3 4 4 2 3 3 4 1 6 11 10 8 4 2 12 10 10 10 10 9 8 7 6 5 4 4 3 3 3 4 4 4 5 5 6 7 7 7
3 5 3 3 4 3 6 6 7 6 5 3 6 6 11 8 8 6 4 5 10 9 9 10 9 8 7 5 5 4 3 2 0 1 2 3 3 4 5 4 5 5 5
4 7 5 3 4 4 4 5 5 4 2 1 4 5 5 9 8 8 6 4 5 10 9 9 10 8 7 7 6 4 2 1 2 2 3 3 4 5 3 4 4 5 4
6 4 3 3 2 1 1 3 3 4 2 2 3 5 4 6 7 7 6 5 5 5 8 10 10 9 9 8 6 5 5 5 5 5 4 5 5 6 5 3 4 3 2
6 4 3 2 2 1 2 3 2 4 3 1 1 2 1 4 5 5 7 6 6 5 4 9 10 9 9 9 8 8 8 6 6 5 5 5 6 7 5 4 4 3 1
7 5 1 2 3 3 1 2 2 3 3 3 4 3 4 3 3 4 5 6 7 8 5 6 5 5 12 11 9 9 9 7 7 6 7 6 6 6 6 5 5 4 4
6 5 2 1 3 4 2 3 1 4 3 2 3 3 1 4 5 4 4 6 6 7 6 5 4 4 5 12 10 9 10 9 8 8 6 7 7 6 6 6 5 6 6
7 6 5 3 4 3 5 3 1 2 1 1 3 1 2 4 3 3 5 5 6 7 6 7 7 7 5 4 7 10 10 9 9 10 9 7 7 7 6 6 7 7 7
7 7 5 4 5 3 3 4 4 5 2 2 2 5 2 3 1 2 3 4 5 4 5 7 8 8 6 7 8 9 12 10 10 11 9 7 8 8 8 7 8 8 8
7 7 6 4 5 4 3 3 2 2 3 2 1 2 2 3 2 2 3 2 3 4 6 4 5 6 6 5 9 11 12 12 12 12 11 11 11 11 11 10 10 9 9
7 8 7 7 5 4 4 4 2 3 2 2 2 1 2 3 3 2 2 2 3 3 5 5 5 5 6 6 5 8 15 14 13 13 12 13 13 13 13 13 13 13 13
5 7 8 6 6 4 4 3 4 4 3 2 2 0 2 1 1 2 2 3 4 4 5 4 5 6 6 5 9 12 17 17 15 15 14 14 15 15 16 16 16 16 17
3 6 7 7 5 5 5 4 3 2 3 2 1 1 0 0 1 2 3 1 1 3 2 4 5 5 7 6 7 14 18 17 16 16 16 15 16 16 17 18 18 19 20
8 7 8 7 7 7 6 5 3 3 3 3 4 2 1 2 1 1 2 3 3 3 2 5 3 6 5 6 10 14 7 16 16 16 17 17 17 17 19 20 21 21 20
6 7 11 10 8 7 7 7 4 4 3 3 4 4 2 3 3 3 1 2 5 1 3 4 2 3 5 4 6 6 6 10 16 17 18 18 19 20 22 22 22 23 21
6 8 11 11 9 8 7 7 5 5 5 4 4 4 3 3 2 3 3 1 2 4 2 3 3 2 2 2 5 6 8 14 16 18 18 18 20 22 23 22 23 22 22
7 10 9 8 9 10 9 7 7 6 7 6 5 5 7 5 4 2 1 1 2 2 3 4 3 3 2 3 5 5 6 7 6 15 17 19 21 22 22 22 23 24 23
6 8 11 11 9 7 8 8 9 7 7 9 8 6 7 5 6 5 3 4 2 2 3 4 3 3 3 6 6 7 7 7 6 12 17 19 18 19 19 20 23 23 22
8 8 8 10 11 9 8 7 8 7 7 7 8 7 7 7 7 5 5 4 3 3 3 3 4 3 4 4 5 4 5 6 5 13 14 15 17 18 19 20 18 16 18
8 8 8 9 8 8 8 8 8 7 7 7 7 8 7 8 7 7 6 6 4 4 3 3 3 4 4 5 2 3 4 2 4 4 7 9 10 10 10 13 15 16 17
15 11 7 8 9 9 8 8 8 9 9 8 7 7 7 9 11 9 5 6 6 5 4 4 4 2 3 3 3 3 3 3 6 5 6 4 4 7 9 9 9 12 10
12 15 15 12 10 10 13 15 11 9 9 11 11 8 7 9 11 13 13 11 8 6 6 4 3 4 5 4 3 4 6 5 4 4 2 8 3 8 7 5 9 4 7
16 12 13 14 14 13 15 17 18 12 11 10 11 10 8 9 9 7 11 15 14 14 14 9 8 9 8 9 5 6 7 7 8 8 1 8 7 8 6 5 7 11 8
17 15 15 15 14 13 15 17 18 14 12 13 11 12 11 11 9 8 9 10 10 11 11 8 11 13 9 8 8 11 10 7 7 8 3 6 5 5 3 4 9 9 10
15 16 14 15 15 14 17 18 13 9 12 13 11 12 11 11 12 14 7 7 7 8 8 14 12 13 15 15 12 3 6 4 8 6 3 3 3 3 2 3 3 9 11
16 12 15 15 16 16 14 19 16 10 10 9 9 8 13 13 13 16 13 13 11 13 7 7 5 6 11 11 16 10 8 6 5 4 3 2 1 1 4 2 2 4 4
Wind_Direction
195 76 125 48 180 225 150 209 239 297 312 279 295 113 130 124 130 137 131 142 146 144 148 144 141 152 146 141 137 133 134 116 96 53 56 40 23 16 19 21 24 25 21
211 121 156 196 204 218 171 176 199 208 243 231 64 82 131 136 143 142 147 150 154 151 161 157 159 165 164 163 161 157 165 130 78 42 25 5 0 352 3 5 9 12 17
135 142 139 150 216 234 175 109 160 234 223 353 58 93 121 147 148 157 155 165 160 165 171 169 178 181 183 182 187 189 173 227 264 296 309 322 324 317 332 337 339 349 13
118 83 127 172 38 51 45 87 97 132 140 203 186 107 114 149 160 158 157 167 168 180 187 187 191 198 202 207 207 210 217 222 230 242 258 276 283 294 292 306 314 325 351
121 130 143 84 92 289 24 81 71 159 160 202 150 123 133 179 159 162 167 174 181 173 184 205 201 205 215 221 225 228 237 232 249 261 270 275 281 287 295 289 285 287 193
122 124 187 174 159 105 34 122 133 89 156 190 184 179 202 199 172 174 189 182 194 194 179 185 191 211 218 232 231 226 232 233 238 244 250 249 257 260 260 261 261 248 203
145 142 147 252 155 163 157 72 143 105 28 72 62 341 327 221 213 190 201 195 200 194 193 179 180 207 215 227 238 226 234 234 236 246 246 243 241 240 237 240 241 220 206
154 155 170 170 174 148 117 117 132 94 33 116 135 137 4 327 300 231 199 192 197 191 200 196 195 200 194 201 222 224 226 231 232 238 239 243 251 249 240 232 223 217 213
163 151 166 170 147 120 154 152 177 134 137 306 231 137 73 222 297 327 155 186 168 178 201 194 190 190 188 196 206 219 220 221 229 236 238 231 233 239 237 228 224 224 221
158 153 159 167 147 134 160 168 183 149 135 201 344 242 173 168 132 355 323 274 230 161 191 214 192 187 187 186 193 200 213 212 220 228 229 230 229 232 234 234 231 232 226
165 162 167 163 158 153 180 176 240 178 158 149 198 214 235 252 198 143 238 297 316 249 220 193 198 187 205 194 196 203 207 209 216 225 224 230 232 236 238 239 236 236 235
175 176 159 161 165 169 195 198 188 154 159 174 217 212 202 191 184 212 177 216 201 267 223 223 190 196 198 203 201 202 205 209 212 221 225 226 232 235 239 240 240 238 238
182 181 161 167 165 166 186 186 179 178 191 210 268 99 137 309 215 218 145 35 182 275 280 249 232 194 205 209 208 198 207 209 213 218 225 227 228 232 235 237 239 238 238
191 173 168 163 173 169 177 179 184 204 194 236 275 289 260 296 348 289 141 115 10 352 315 249 228 222 210 203 217 206 203 212 217 223 227 230 231 231 232 234 235 238 239
183 177 168 171 176 175 176 180 188 216 220 228 228 261 269 283 311 336 278 124 143 350 310 310 343 270 260 237 224 198 212 218 226 229 232 233 234 235 237 236 236 238 235
162 164 172 174 176 183 176 177 190 214 202 224 224 245 254 263 287 318 306 171 146 158 209 222 277 291 320 288 243 215 225 228 229 234 240 241 241 242 242 240 241 240 235
154 165 169 169 178 179 187 182 193 207 197 209 227 223 245 241 258 257 345 346 315 179 215 292 250 227 291 263 277 239 246 252 251 233 238 243 243 246 247 247 248 243 240
178 173 183 183 189 189 182 175 196 198 193 206 219 215 234 227 244 247 215 253 251 254 174 254 280 300 293 292 268 282 275 261 245 249 242 248 251 252 251 251 247 246 245
207 184 180 176 181 184 187 190 192 204 207 205 209 210 216 211 223 233 226 233 237 251 212 199 268 261 266 266 284 281 265 260 254 256 265 269 264 261 257 258 263 253 246
187 183 182 186 181 183 188 191 192 203 210 210 211 222 220 210 213 221 228 229 239 262 270 266 267 264 249 286 221 246 293 305 291 299 281 274 292 299 275 265 267 261 257
205 199 184 185 187 188 198 195 194 202 208 218 225 218 227 218 208 205 207 224 218 229 239 251 270 286 288 303 282 283 281 285 299 275 290 294 299 311 306 298 268 268 274
201 202 207 204 195 204 202 198 199 203 203 209 222 232 229 230 232 229 227 219 202 208 218 203 226 239 260 257 263 270 290 298 304 259 310 295 301 299 294 277 297 3 289
210 202 200 203 207 209 199 202 204 212 214 212 215 219 230 237 225 227 238 241 243 238 232 238 242 245 260 258 268 274 272 267 272 281 287 292 305 290 288 293 323 349 336
206 210 212 210 209 213 200 205 204 214 216 218 208 210 216 224 222 215 234 243 243 245 240 229 231 254 252 255 232 256 264 269 280 285 199 281 296 274 285 287 333 324 5
205 209 209 209 210 215 202 206 191 204 220 224 219 218 214 220 220 216 212 230 246 253 246 238 236 227 234 241 246 270 263 272 282 283 244 224 280 294 266 302 345 50 52
208 204 213 212 211 217 204 207 197 210 214 223 225 225 213 211 210 221 230 242 252 255 247 254 250 256 245 249 247 227 248 241 251 282 259 172 291 312 319 300 66 23 20